Wind_Speed
32 32 32 32 35 36 37 40 39 36 35 36 34 36 38 41 43 44 45 44 40 40 42 43 44 47 47 49 54 62 66 68 62 59 56 46 38 40 49 59 66 67 70
32 33 34 34 35 34 36 38 36 35 36 34 33 35 36 36 38 40 41 41 37 35 37 38 39 42 42 42 42 49 58 65 66 60 63 62 46 38 39 42 54 61 63
34 35 35 35 34 33 35 36 35 35 35 32 32 33 34 34 35 35 36 35 34 31 33 35 35 36 37 36 37 39 46 52 62 69 64 64 59 46 39 39 41 48 54
33 33 35 35 33 34 35 36 36 36 34 32 31 32 33 33 32 31 34 34 31 28 27 30 32 31 32 34 35 35 39 43 50 65 73 66 64 62 50 47 42 41 41
34 35 35 36 35 36 36 37 38 36 34 34 34 34 33 33 32 31 32 32 32 30 26 24 27 29 31 34 36 34 36 39 42 50 65 73 69 69 68 62 54 51 45
35 35 36 36 36 37 38 38 39 37 36 36 36 35 35 34 33 34 32 32 33 32 31 28 25 24 26 30 35 37 38 40 42 46 54 63 67 72 72 72 71 66 59
36 38 36 36 37 38 39 40 41 39 37 38 37 36 36 35 35 35 33 34 34 33 30 28 28 27 27 27 28 31 35 39 42 46 50 55 60 67 73 76 75 73 73
38 39 38 38 38 39 41 42 43 40 37 38 37 37 36 36 36 37 35 35 36 36 33 31 30 31 32 33 34 34 35 37 41 44 47 51 57 60 65 73 76 77 77
37 39 39 39 39 41 43 44 43 39 37 37 37 37 37 37 38 39 38 39 40 40 39 39 39 38 39 39 40 40 43 45 46 47 49 52 54 58 60 67 72 76 79
37 39 40 40 41 42 44 45 42 38 37 36 38 37 37 37 39 40 41 42 43 43 43 44 45 47 47 48 50 51 51 51 54 56 57 58 60 61 62 64 67 70 72
38 40 41 43 43 43 44 43 40 39 37 37 38 38 37 39 40 42 44 45 46 46 46 47 49 51 53 55 58 60 60 57 57 59 62 66 68 69 67 65 65 65 65
38 42 45 45 44 44 42 41 39 39 38 38 39 39 39 40 42 44 47 48 50 51 52 52 53 54 57 60 63 65 64 60 61 64 67 70 73 75 74 72 68 67 64
42 45 46 44 42 41 40 40 39 38 39 38 38 39 41 44 46 48 50 51 53 55 56 57 59 60 63 65 67 67 67 66 67 68 69 69 72 75 76 76 75 71 67
44 45 43 41 39 38 39 38 38 38 39 39 39 41 44 47 49 51 53 55 56 58 60 62 64 67 69 69 68 67 65 65 65 62 61 61 64 70 72 72 75 76 72
44 42 41 38 37 37 38 38 39 39 40 40 42 44 48 50 52 54 56 57 60 62 64 66 69 71 69 66 63 60 58 58 59 57 54 53 54 59 63 65 67 73 74
41 40 38 36 36 37 38 38 40 42 42 44 47 50 52 54 56 57 59 61 65 67 69 72 72 69 65 60 57 55 55 53 52 51 48 45 46 49 54 58 60 63 68
39 37 35 36 36 37 38 40 43 44 46 48 51 54 56 58 59 61 64 67 71 73 74 73 70 65 60 56 55 53 52 49 47 45 42 39 39 42 46 52 56 57 59
36 35 35 36 37 38 40 43 45 48 51 53 55 57 59 62 65 68 71 73 76 76 76 73 67 62 58 55 53 51 48 44 41 38 36 34 34 37 39 46 52 53 53
34 34 34 36 38 41 44 47 49 51 53 55 58 61 64 67 71 75 77 78 77 75 72 68 63 59 57 54 51 47 43 39 35 32 31 30 31 34 35 41 46 49 50
34 36 38 40 43 46 49 51 52 54 56 58 62 65 69 73 76 78 78 78 76 72 68 64 60 57 55 51 47 42 38 34 30 28 28 28 28 30 33 39 43 46 48
37 40 43 45 48 50 52 54 56 58 61 65 69 73 76 78 78 78 77 75 72 67 63 60 57 53 49 45 41 37 33 30 27 25 26 27 27 28 30 36 42 44 45
41 44 47 49 51 53 56 58 62 65 69 73 76 78 80 81 81 79 76 72 69 64 60 55 50 46 42 39 35 33 30 28 25 24 24 26 27 28 29 33 39 42 43
46 48 51 53 56 59 62 66 70 73 76 79 81 81 81 80 78 75 71 67 62 56 51 45 40 36 34 33 31 29 27 26 25 25 23 23 25 27 27 30 34 37 40
50 52 55 59 62 66 70 73 76 79 80 82 82 81 79 77 73 68 61 55 49 44 38 35 31 29 29 28 28 27 26 26 25 26 24 21 22 23 23 25 28 31 33
55 58 62 66 70 73 76 78 80 81 82 81 79 75 71 66 59 53 47 43 38 34 31 29 27 25 24 24 25 25 26 26 26 28 27 22 21 21 21 21 21 24 27
62 66 69 73 75 78 79 81 81 80 77 72 66 61 56 51 46 43 40 38 35 32 30 28 27 24 22 21 22 24 26 26 26 28 29 25 23 21 21 21 21 21 24
Wind_Direction
258 261 266 272 283 289 292 294 291 288 288 286 283 286 291 296 301 306 310 309 295 281 274 276 272 265 261 261 258 257 253 246 245 245 243 235 224 224 234 239 241 242 240
262 266 269 275 282 288 295 296 292 290 290 283 281 285 291 295 299 305 310 314 308 288 277 276 274 269 262 263 262 260 259 251 244 243 245 245 237 215 216 234 236 241 244
264 265 267 273 280 288 297 300 294 293 293 284 280 284 289 293 299 306 312 319 319 302 282 278 278 273 264 265 266 261 260 258 248 243 245 245 244 234 235 240 235 239 244
266 268 270 275 282 288 294 304 296 291 293 284 279 286 289 292 299 306 313 318 323 321 302 284 280 276 265 264 267 262 260 261 255 246 245 245 244 246 251 246 241 240 240
269 270 275 277 281 287 293 300 302 290 289 283 280 286 287 289 297 305 309 311 318 325 323 307 287 279 269 265 266 262 260 261 259 252 249 248 246 246 248 248 247 250 245
270 273 278 281 284 287 292 296 302 292 286 285 281 283 285 285 293 301 306 306 310 315 320 319 313 299 284 273 267 263 259 257 257 255 251 252 251 249 248 249 249 249 250
277 278 283 286 286 287 292 296 298 291 283 283 279 280 282 282 288 295 303 305 305 308 309 311 312 312 308 299 289 279 270 261 255 253 252 252 252 250 250 250 249 247 246
280 283 285 287 287 289 291 294 294 288 281 280 276 279 280 280 286 292 298 301 303 303 304 304 302 301 300 300 299 297 293 283 272 260 252 250 251 251 250 250 249 247 244
280 284 286 288 288 289 291 291 290 285 281 278 275 277 277 278 283 290 294 297 300 303 304 303 302 300 298 295 295 295 293 288 283 276 266 256 250 249 248 248 248 247 246
282 287 288 288 288 290 290 290 287 282 279 276 275 275 275 276 282 288 291 294 296 299 300 299 298 297 296 294 294 295 294 287 279 273 268 263 255 249 247 245 245 246 246
283 289 290 288 289 290 290 288 283 279 277 276 275 275 274 276 281 287 290 293 295 297 297 296 295 294 293 293 294 295 294 288 280 274 267 260 256 251 246 244 244 243 243
284 287 290 289 289 289 288 284 280 277 277 277 276 274 275 277 281 286 290 293 295 297 297 296 294 293 293 294 295 296 293 287 282 277 270 259 251 249 247 243 241 242 241
286 288 290 289 289 287 285 282 279 278 279 278 276 276 278 281 283 286 289 292 294 297 299 298 298 298 297 298 297 296 294 289 283 277 271 263 252 244 243 242 240 239 240
284 288 291 291 288 285 283 280 280 280 280 277 277 279 281 284 286 288 291 293 296 298 300 300 301 301 301 301 299 296 293 287 281 276 271 265 256 246 240 239 238 237 238
288 291 293 290 285 283 282 281 282 282 281 279 280 283 286 288 289 290 291 294 297 299 301 302 303 303 302 300 297 292 287 282 280 278 272 265 258 248 240 236 235 234 234
293 294 291 286 282 282 284 285 285 285 283 283 284 287 289 290 291 292 294 297 300 302 303 304 304 303 301 297 292 287 284 281 280 278 271 263 254 245 237 233 231 231 232
294 292 288 283 283 286 289 290 290 289 288 290 291 292 293 293 294 296 298 301 302 303 304 304 303 301 298 293 289 285 282 279 277 275 268 259 247 239 235 230 228 228 228
293 290 288 288 290 292 293 293 293 293 295 295 295 295 296 297 298 300 301 302 303 304 303 302 301 298 295 291 287 283 279 275 274 269 262 253 241 237 234 228 226 226 225
294 294 295 296 296 296 295 294 294 295 296 296 297 297 298 300 300 301 301 302 302 302 301 299 297 295 292 289 285 279 274 270 268 260 252 246 238 235 233 225 224 223 222
297 298 299 299 299 297 296 296 296 297 297 297 297 297 298 299 300 301 301 301 300 299 298 296 293 291 289 284 279 273 267 264 259 248 240 236 232 230 230 222 220 221 219
300 301 301 300 299 298 298 299 299 299 299 299 299 299 300 300 301 300 300 299 298 297 294 293 291 289 284 278 272 266 259 256 251 236 231 229 224 224 223 220 215 216 218
303 302 302 301 301 301 302 302 301 301 301 301 301 301 301 301 300 300 299 298 297 296 294 292 289 285 279 271 265 259 251 246 242 228 225 225 222 220 216 213 213 213 215
304 303 303 303 303 303 303 303 302 302 302 302 302 301 300 300 299 299 298 297 296 295 293 290 285 279 272 265 257 251 243 236 233 222 220 218 215 213 211 210 210 213 214
305 305 305 305 305 304 304 303 303 303 302 302 301 300 300 299 299 299 298 298 296 293 290 287 282 275 268 260 251 241 233 228 224 218 216 213 207 206 205 205 208 211 213
307 307 306 306 305 305 304 304 304 303 303 302 301 301 301 300 300 300 299 296 293 290 286 282 278 273 265 256 246 234 224 221 217 212 212 211 204 200 199 196 198 203 209
308 307 307 307 306 306 306 305 304 304 303 303 303 303 302 302 301 299 296 293 289 285 279 274 271 268 263 254 242 229 218 214 211 208 207 208 203 199 200 200 198 199 199
Height
5601 5601 5602 5602 5600 5597 5592 5588 5583 5578 5574 5570 5567 5564 5561 5556 5550 5544 5538 5530 5524 5520 5518 5516 5514 5514 5515 5515 5517 5519 5525 5532 5538 5548 5553 5556 5561 5567 5571 5576 5581 5588 5595
5591 5590 5589 5588 5587 5584 5580 5576 5570 5567 5563 5559 5556 5554 5550 5546 5541 5535 5529 5521 5513 5509 5506 5504 5503 5501 5503 5503 5505 5507 5509 5514 5522 5530 5536 5543 5548 5554 5559 5565 5570 5573 5581
5579 5578 5577 5576 5575 5572 5569 5563 5558 5555 5551 5547 5544 5542 5539 5535 5531 5527 5521 5514 5506 5499 5496 5494 5492 5489 5491 5493 5494 5495 5496 5498 5504 5512 5519 5527 5535 5540 5546 5551 5559 5564 5569
5567 5566 5565 5564 5562 5560 5557 5552 5548 5544 5540 5537 5534 5531 5528 5524 5521 5518 5513 5506 5499 5492 5488 5485 5482 5481 5481 5482 5483 5485 5486 5487 5490 5497 5503 5511 5519 5525 5530 5538 5545 5553 5556
5556 5555 5553 5551 5550 5548 5545 5541 5537 5533 5529 5526 5524 5521 5517 5513 5510 5508 5504 5498 5493 5487 5481 5476 5473 5471 5472 5472 5473 5475 5476 5476 5479 5482 5488 5493 5504 5510 5516 5522 5529 5536 5541
5545 5544 5542 5539 5537 5535 5533 5529 5525 5521 5518 5515 5513 5511 5507 5502 5500 5497 5495 5491 5487 5482 5477 5472 5468 5465 5463 5462 5463 5464 5466 5466 5468 5470 5474 5480 5489 5495 5500 5505 5511 5518 5527
5533 5532 5530 5527 5525 5523 5521 5517 5513 5509 5505 5503 5501 5499 5496 5492 5489 5487 5486 5482 5478 5475 5472 5468 5464 5459 5456 5454 5453 5453 5454 5456 5457 5458 5461 5467 5471 5479 5482 5487 5493 5500 5510
5521 5520 5518 5516 5514 5511 5508 5504 5500 5496 5492 5490 5489 5487 5484 5481 5479 5476 5475 5471 5468 5465 5462 5459 5457 5454 5450 5446 5445 5445 5445 5445 5446 5447 5448 5451 5453 5457 5461 5464 5468 5477 5484
5509 5508 5506 5504 5501 5498 5495 5492 5488 5484 5480 5477 5476 5474 5472 5470 5468 5465 5463 5461 5457 5454 5451 5447 5445 5444 5441 5437 5435 5435 5434 5434 5433 5431 5433 5435 5436 5438 5441 5442 5447 5453 5460
5498 5496 5494 5491 5488 5485 5482 5478 5475 5471 5468 5465 5464 5462 5460 5457 5455 5453 5451 5449 5446 5443 5439 5435 5432 5429 5427 5423 5420 5419 5418 5419 5416 5413 5412 5412 5415 5418 5420 5423 5428 5431 5438
5486 5484 5480 5478 5475 5471 5468 5465 5462 5458 5456 5454 5452 5449 5447 5445 5443 5440 5437 5435 5432 5429 5426 5422 5419 5414 5410 5407 5403 5399 5397 5395 5393 5392 5391 5390 5391 5394 5398 5402 5407 5411 5417
5474 5470 5467 5464 5461 5457 5454 5452 5449 5446 5444 5441 5438 5436 5434 5432 5430 5427 5424 5420 5416 5413 5410 5406 5402 5398 5393 5388 5383 5378 5373 5370 5368 5366 5363 5363 5365 5368 5374 5380 5386 5390 5397
5461 5458 5454 5451 5447 5444 5442 5439 5436 5434 5432 5429 5426 5424 5421 5418 5416 5413 5409 5405 5401 5396 5391 5386 5381 5377 5372 5366 5360 5353 5348 5344 5339 5334 5331 5332 5336 5341 5346 5353 5361 5368 5376
5449 5446 5441 5437 5434 5432 5429 5427 5424 5421 5419 5417 5414 5411 5409 5405 5401 5397 5392 5388 5383 5378 5372 5365 5359 5353 5347 5341 5334 5328 5321 5314 5308 5305 5302 5303 5305 5311 5319 5328 5337 5346 5354
5437 5433 5428 5424 5422 5420 5417 5414 5411 5409 5406 5403 5401 5398 5394 5390 5385 5380 5375 5369 5363 5357 5351 5345 5338 5330 5322 5314 5308 5301 5295 5290 5284 5280 5279 5278 5281 5286 5296 5305 5314 5324 5335
5424 5420 5416 5413 5411 5408 5404 5402 5399 5395 5392 5388 5385 5381 5377 5373 5367 5361 5355 5348 5340 5334 5327 5320 5312 5305 5297 5291 5285 5279 5272 5267 5263 5260 5258 5258 5261 5266 5274 5284 5294 5304 5316
5413 5408 5405 5402 5399 5396 5393 5389 5385 5381 5377 5372 5368 5363 5357 5352 5346 5339 5332 5324 5317 5309 5302 5294 5288 5281 5275 5269 5263 5258 5254 5249 5245 5242 5241 5242 5244 5250 5257 5267 5277 5287 5298
5402 5398 5395 5392 5388 5385 5381 5376 5372 5366 5360 5354 5348 5343 5337 5330 5322 5315 5308 5301 5292 5284 5277 5271 5265 5259 5253 5248 5242 5238 5234 5232 5229 5227 5227 5229 5232 5238 5243 5252 5262 5272 5283
5392 5388 5385 5381 5377 5372 5368 5363 5357 5351 5345 5338 5331 5323 5316 5308 5300 5293 5285 5278 5269 5261 5254 5247 5242 5237 5232 5227 5222 5219 5217 5216 5215 5214 5216 5219 5222 5227 5232 5239 5249 5259 5269
5382 5378 5373 5369 5364 5359 5354 5347 5341 5335 5328 5321 5314 5306 5298 5289 5279 5270 5261 5253 5245 5238 5231 5225 5220 5214 5210 5206 5204 5203 5202 5202 5203 5204 5207 5210 5213 5217 5222 5228 5237 5246 5256
5371 5366 5361 5356 5350 5344 5337 5330 5323 5316 5309 5300 5292 5282 5273 5264 5254 5245 5236 5228 5221 5215 5208 5202 5197 5193 5189 5187 5187 5188 5189 5190 5191 5194 5198 5201 5205 5208 5212 5218 5227 5236 5245
5360 5354 5348 5341 5335 5327 5320 5312 5304 5295 5286 5277 5267 5257 5247 5237 5228 5219 5211 5203 5196 5190 5185 5180 5175 5173 5171 5170 5171 5174 5176 5178 5181 5185 5189 5193 5197 5201 5205 5211 5219 5227 5236
5347 5340 5333 5325 5318 5309 5301 5292 5282 5272 5262 5252 5241 5231 5220 5210 5201 5193 5186 5179 5173 5168 5164 5160 5158 5156 5156 5156 5158 5162 5165 5169 5172 5177 5181 5185 5190 5194 5199 5206 5213 5221 5229
5333 5325 5317 5308 5299 5289 5279 5269 5259 5248 5237 5226 5214 5203 5193 5184 5176 5169 5163 5158 5153 5150 5147 5146 5144 5144 5144 5145 5147 5151 5155 5160 5164 5169 5175 5179 5183 5188 5194 5200 5207 5215 5223
5317 5308 5299 5289 5279 5268 5257 5246 5234 5222 5209 5197 5187 5177 5168 5160 5154 5149 5145 5141 5138 5136 5134 5134 5134 5134 5134 5135 5138 5142 5147 5152 5157 5162 5168 5174 5178 5183 5189 5195 5202 5209 5216
5300 5289 5279 5268 5256 5245 5233 5220 5207 5194 5182 5171 5162 5154 5147 5141 5137 5132 5129 5126 5124 5123 5123 5123 5124 5125 5126 5127 5130 5134 5139 5144 5150 5156 5163 5169 5174 5179 5185 5191 5197 5203 5209